Meteo18 Weather Cam more information Meteo18 Weather Cam


Thunder radar more information blitzortung!


Rain radar more information rain snow radar



Select another period ( hide this area )

Units Period Custom range Directly to
Metric English Both
Daily Weekly Monthly Yearly
use both date-selectors for a custom range
previous Day
With this date

WeatherUnderground graphs for this period ( click here )


Daily Summary for Wednesday 15 August 2018
Time Temp. ( °C ) Dew pt. ( °C ) Wind ( km/h ) from Gust ( km/h ) Pressure ( hPa ) Humid.( % ) Rainrate ( cm )
High20,8 14,3 11,1 North ( 65/213 ) 12,9 1022,6 89 -
Average16,7 12,6 1,8 Calm #68/117 3,4 1021,7 77 -
Low13,3 11,5 -   0,0 1021,2 63 -
Daily Tabular details for Wednesday 15 August 2018
Time Temp. ( °C ) Dew pt. ( °C ) Wind ( km/h ) from Gust ( km/h ) Pressure ( hPa ) Humid.( % ) Rainrate ( cm )
00:03 19,4 13,3 6,4 NNW 11,3 1021,6 68 -
00:09 19,3 13,2 1,4 WNW 8,0 1021,6 68 -
00:13 19,2 13,1 3,2 WNW 6,4 1021,6 68 -
00:19 19,1 13,3 3,2 North 11,3 1021,6 69 -
00:23 19,1 13,3 4,7 NNW 8,0 1021,6 69 -
00:29 19,0 13,2 6,4 NNW 8,0 1021,6 69 -
00:33 18,9 13,1 6,4 NW 6,4 1021,6 69 -
00:39 18,7 12,9 3,2 North 4,8 1021,9 69 -
00:43 18,6 13,0 6,4 North 6,4 1021,9 70 -
00:49 18,4 13,0 1,4 North 8,0 1021,9 71 -
00:53 18,4 13,0   Calm 6,4 1021,9 71 -
00:59 18,3 13,0 4,7 NNE 6,4 1021,9 71 -
01:03 18,2 13,1 4,7 North 11,3 1021,9 72 -
01:09 18,3 13,0 3,2 NNW 8,0 1021,9 71 -
01:13 18,3 13,0 3,2 NW 8,0 1021,9 71 -
01:19 18,2 12,9 7,9 NW 8,0 1021,9 71 -
01:23 18,1 13,0 3,2 NW 8,0 1021,9 72 -
01:29 18,1 13,0 9,7 WNW 9,7 1021,6 72 -
01:33 18,1 13,0 4,7 NNW 8,0 1021,6 72 -
01:39 17,9 12,8 6,4 NNE 11,3 1021,6 72 -
01:43 17,9 12,8 7,9 North 9,7 1021,6 72 -
01:49 17,8 12,7 4,7 NNW 9,7 1021,6 72 -
01:53 17,8 12,7 7,9 NNW 9,7 1021,6 72 -
01:59 17,9 12,8 11,1 North 11,3 1021,9 72 -
02:03 17,9 12,8 6,4 North 9,7 1021,9 72 -
02:09 17,8 12,9 6,4 NNW 8,0 1021,6 73 -
02:13 17,7 12,8 6,4 North 8,0 1021,6 73 -
02:19 17,7 12,8 7,9 North 11,3 1021,6 73 -
02:23 17,7 12,8 6,4 NNE 9,7 1021,6 73 -
02:29 17,7 12,8 3,2 NNW 11,3 1021,6 73 -
02:33 17,8 12,9 6,4 North 8,0 1021,6 73 -
02:39 17,7 12,8 4,7 NNE 12,9 1021,6 73 -
02:43 17,8 12,9 4,7 NNW 9,7 1021,6 73 -
02:49 17,5 12,6   Calm 3,2 1021,6 73 -
02:53 17,3 12,8   Calm 3,2 1021,6 75 -
02:59 17,0 12,7 1,4 WNW 3,2 1021,6 76 -
03:03 16,9 12,6 1,4 NNW 3,2 1021,6 76 -
03:09 16,9 12,8 1,4 NW 3,2 1021,6 77 -
03:13 16,8 12,7 3,2 NW 4,8 1021,6 77 -
03:19 16,8 12,7 3,2 NNW 4,8 1021,6 77 -
03:23 16,8 12,7 3,2 NNW 4,8 1021,6 77 -
03:29 16,7 12,6 1,4 NNW 4,8 1021,6 77 -
03:33 16,7 12,6 3,2 NNW 4,8 1021,6 77 -
03:39 16,6 12,6   Calm 4,8 1021,6 77 -
03:43 16,6 12,6 1,4 NW 3,2 1021,6 77 -
03:49 16,4 12,4 3,2 NW 4,8 1021,6 77 -
03:53 16,6 12,6 1,4 NW 3,2 1021,6 77 -
03:57 16,6 12,6 1,4 NW 3,2 1021,6 77 -
04:03 16,5 12,5   Calm 1,6 1021,6 77 -
04:07 16,4 12,4   Calm   1021,6 77 -
04:13 16,2 12,2   Calm   1021,6 77 -
04:18 15,9 11,9   Calm   1021,6 77 -
04:24 15,6 12,0   Calm 1,6 1021,6 79 -
04:28 15,4 12,0   Calm   1021,6 80 -
04:34 15,2 12,0   Calm   1021,6 81 -
04:38 15,0 12,0   Calm   1021,6 82 -
04:44 14,8 11,9   Calm   1021,6 83 -
04:48 14,7 11,8   Calm   1021,6 83 -
04:54 14,6 11,9   Calm   1021,2 84 -
04:58 14,6 11,9   Calm   1021,6 84 -
05:04 14,5 11,8   Calm   1021,6 84 -
05:08 14,4 11,7   Calm   1021,6 84 -
05:14 14,2 11,5   Calm   1021,2 84 -
05:18 14,1 11,6   Calm   1021,2 85 -
05:24 14,1 11,8   Calm   1021,2 86 -
05:28 13,9 11,6   Calm   1021,2 86 -
05:34 13,9 11,8   Calm   1021,2 87 -
05:38 13,9 11,8   Calm   1021,2 87 -
05:44 13,8 11,7   Calm   1021,2 87 -
05:48 13,7 11,6   Calm   1021,2 87 -
05:52 13,7 11,7   Calm   1021,2 88 -
05:59 13,7 11,7 1,4 WNW 1,6 1021,2 88 -
06:03 13,6 11,6   Calm 1,6 1021,2 88 -
06:09 13,4 11,5   Calm   1021,6 88 -
06:13 13,3 11,5   Calm   1021,6 89 -
06:19 13,3 11,5   Calm 1,6 1021,6 89 -
06:23 13,3 11,5   Calm   1021,6 89 -
06:29 13,3 11,5   Calm 1,6 1021,6 89 -
06:33 13,4 11,6   Calm   1021,6 89 -
06:39 13,4 11,6   Calm 1,6 1021,6 89 -
06:43 13,4 11,6   Calm 1,6 1021,6 89 -
06:49 13,4 11,6   Calm   1021,6 89 -
06:53 13,4 11,6   Calm   1021,6 89 -
06:59 13,4 11,6   Calm   1021,6 89 -
07:03 13,4 11,6   Calm   1021,9 89 -
07:09 13,7 11,9   Calm   1021,9 89 -
07:13 13,9 12,1   Calm   1021,9 89 -
07:19 14,4 12,6   Calm   1021,9 89 -
07:23 14,8 13,0   Calm   1021,9 89 -
07:28 15,1 13,0   Calm   1021,9 87 -
07:34 14,9 12,4   Calm   1021,9 85 -
07:38 14,8 12,1   Calm   1021,9 84 -
07:44 14,9 12,2   Calm   1021,9 84 -
07:48 15,1 12,6   Calm   1021,9 85 -
07:54 15,9 13,4   Calm   1022,2 85 -
07:58 16,5 13,6   Calm   1022,2 83 -
08:04 17,2 13,5   Calm   1021,9 79 -
08:08 17,4 13,5   Calm   1022,2 78 -
08:14 18,4 14,1   Calm   1022,2 76 -
08:18 19,2 14,0   Calm   1022,2 72 -
08:24 19,8 13,7   Calm   1022,2 68 -
08:28 19,8 13,5   Calm   1022,2 67 -
08:34 19,9 13,6   Calm   1022,2 67 -
08:38 19,9 13,8   Calm   1022,2 68 -
08:44 20,4 14,3   Calm   1022,2 68 -
08:48 20,6 14,0   Calm   1022,2 66 -
08:54 19,7 13,2   Calm 4,8 1022,2 66 -
08:58 19,4 13,3 3,2 West 3,2 1022,2 68 -
09:04 19,2 13,1 1,4 West 3,2 1022,2 68 -
09:08 19,2 13,1   Calm 3,2 1022,6 68 -
09:14 19,4 13,3   Calm 3,2 1022,2 68 -
09:18 19,7 13,6   Calm 1,6 1022,2 68 -
09:24 20,5 13,7 3,2 WNW 3,2 1022,2 65 -
09:29 20,4 13,1   Calm 1,6 1022,2 63 -
09:33 20,6 13,6 3,2 NE 4,8 1022,2 64 -
09:39 20,7 13,4   Calm 3,2 1022,2 63 -
09:43 20,8 13,5   Calm 1,6 1022,2 63 -
Daily Summary for Wednesday 15 August 2018
Time Temp. ( °C ) Dew pt. ( °C ) Wind ( km/h ) from Gust ( km/h ) Pressure ( hPa ) Humid.( % ) Rainrate ( cm )
High20,8 14,3 11,1 North ( 65/213 ) 12,9 1022,6 89 -
Average16,7 12,6 1,8 Calm #68/117 3,4 1021,7 77 -
Low13,3 11,5 -   0,0 1021,2 63 -
Daily Tabular details for Wednesday 15 August 2018
Time Temp. ( °C ) Dew pt. ( °C ) Wind ( km/h ) from Gust ( km/h ) Pressure ( hPa ) Humid.( % ) Rainrate ( cm )
00:03 19,4 13,3 6,4 NNW 11,3 1021,6 68 -
00:09 19,3 13,2 1,4 WNW 8,0 1021,6 68 -
00:13 19,2 13,1 3,2 WNW 6,4 1021,6 68 -
00:19 19,1 13,3 3,2 North 11,3 1021,6 69 -
00:23 19,1 13,3 4,7 NNW 8,0 1021,6 69 -
00:29 19,0 13,2 6,4 NNW 8,0 1021,6 69 -
00:33 18,9 13,1 6,4 NW 6,4 1021,6 69 -
00:39 18,7 12,9 3,2 North 4,8 1021,9 69 -
00:43 18,6 13,0 6,4 North 6,4 1021,9 70 -
00:49 18,4 13,0 1,4 North 8,0 1021,9 71 -
00:53 18,4 13,0   Calm 6,4 1021,9 71 -
00:59 18,3 13,0 4,7 NNE 6,4 1021,9 71 -
01:03 18,2 13,1 4,7 North 11,3 1021,9 72 -
01:09 18,3 13,0 3,2 NNW 8,0 1021,9 71 -
01:13 18,3 13,0 3,2 NW 8,0 1021,9 71 -
01:19 18,2 12,9 7,9 NW 8,0 1021,9 71 -
01:23 18,1 13,0 3,2 NW 8,0 1021,9 72 -
01:29 18,1 13,0 9,7 WNW 9,7 1021,6 72 -
01:33 18,1 13,0 4,7 NNW 8,0 1021,6 72 -
01:39 17,9 12,8 6,4 NNE 11,3 1021,6 72 -
01:43 17,9 12,8 7,9 North 9,7 1021,6 72 -
01:49 17,8 12,7 4,7 NNW 9,7 1021,6 72 -
01:53 17,8 12,7 7,9 NNW 9,7 1021,6 72 -
01:59 17,9 12,8 11,1 North 11,3 1021,9 72 -
02:03 17,9 12,8 6,4 North 9,7 1021,9 72 -
02:09 17,8 12,9 6,4 NNW 8,0 1021,6 73 -
02:13 17,7 12,8 6,4 North 8,0 1021,6 73 -
02:19 17,7 12,8 7,9 North 11,3 1021,6 73 -
02:23 17,7 12,8 6,4 NNE 9,7 1021,6 73 -
02:29 17,7 12,8 3,2 NNW 11,3 1021,6 73 -
02:33 17,8 12,9 6,4 North 8,0 1021,6 73 -
02:39 17,7 12,8 4,7 NNE 12,9 1021,6 73 -
02:43 17,8 12,9 4,7 NNW 9,7 1021,6 73 -
02:49 17,5 12,6   Calm 3,2 1021,6 73 -
02:53 17,3 12,8   Calm 3,2 1021,6 75 -
02:59 17,0 12,7 1,4 WNW 3,2 1021,6 76 -
03:03 16,9 12,6 1,4 NNW 3,2 1021,6 76 -
03:09 16,9 12,8 1,4 NW 3,2 1021,6 77 -
03:13 16,8 12,7 3,2 NW 4,8 1021,6 77 -
03:19 16,8 12,7 3,2 NNW 4,8 1021,6 77 -
03:23 16,8 12,7 3,2 NNW 4,8 1021,6 77 -
03:29 16,7 12,6 1,4 NNW 4,8 1021,6 77 -
03:33 16,7 12,6 3,2 NNW 4,8 1021,6 77 -
03:39 16,6 12,6   Calm 4,8 1021,6 77 -
03:43 16,6 12,6 1,4 NW 3,2 1021,6 77 -
03:49 16,4 12,4 3,2 NW 4,8 1021,6 77 -
03:53 16,6 12,6 1,4 NW 3,2 1021,6 77 -
03:57 16,6 12,6 1,4 NW 3,2 1021,6 77 -
04:03 16,5 12,5   Calm 1,6 1021,6 77 -
04:07 16,4 12,4   Calm   1021,6 77 -
04:13 16,2 12,2   Calm   1021,6 77 -
04:18 15,9 11,9   Calm   1021,6 77 -
04:24 15,6 12,0   Calm 1,6 1021,6 79 -
04:28 15,4 12,0   Calm   1021,6 80 -
04:34 15,2 12,0   Calm   1021,6 81 -
04:38 15,0 12,0   Calm   1021,6 82 -
04:44 14,8 11,9   Calm   1021,6 83 -
04:48 14,7 11,8   Calm   1021,6 83 -
04:54 14,6 11,9   Calm   1021,2 84 -
04:58 14,6 11,9   Calm   1021,6 84 -
05:04 14,5 11,8   Calm   1021,6 84 -
05:08 14,4 11,7   Calm   1021,6 84 -
05:14 14,2 11,5   Calm   1021,2 84 -
05:18 14,1 11,6   Calm   1021,2 85 -
05:24 14,1 11,8   Calm   1021,2 86 -
05:28 13,9 11,6   Calm   1021,2 86 -
05:34 13,9 11,8   Calm   1021,2 87 -
05:38 13,9 11,8   Calm   1021,2 87 -
05:44 13,8 11,7   Calm   1021,2 87 -
05:48 13,7 11,6   Calm   1021,2 87 -
05:52 13,7 11,7   Calm   1021,2 88 -
05:59 13,7 11,7 1,4 WNW 1,6 1021,2 88 -
06:03 13,6 11,6   Calm 1,6 1021,2 88 -
06:09 13,4 11,5   Calm   1021,6 88 -
06:13 13,3 11,5   Calm   1021,6 89 -
06:19 13,3 11,5   Calm 1,6 1021,6 89 -
06:23 13,3 11,5   Calm   1021,6 89 -
06:29 13,3 11,5   Calm 1,6 1021,6 89 -
06:33 13,4 11,6   Calm   1021,6 89 -
06:39 13,4 11,6   Calm 1,6 1021,6 89 -
06:43 13,4 11,6   Calm 1,6 1021,6 89 -
06:49 13,4 11,6   Calm   1021,6 89 -
06:53 13,4 11,6   Calm   1021,6 89 -
06:59 13,4 11,6   Calm   1021,6 89 -
07:03 13,4 11,6   Calm   1021,9 89 -
07:09 13,7 11,9   Calm   1021,9 89 -
07:13 13,9 12,1   Calm   1021,9 89 -
07:19 14,4 12,6   Calm   1021,9 89 -
07:23 14,8 13,0   Calm   1021,9 89 -
07:28 15,1 13,0   Calm   1021,9 87 -
07:34 14,9 12,4   Calm   1021,9 85 -
07:38 14,8 12,1   Calm   1021,9 84 -
07:44 14,9 12,2   Calm   1021,9 84 -
07:48 15,1 12,6   Calm   1021,9 85 -
07:54 15,9 13,4   Calm   1022,2 85 -
07:58 16,5 13,6   Calm   1022,2 83 -
08:04 17,2 13,5   Calm   1021,9 79 -
08:08 17,4 13,5   Calm   1022,2 78 -
08:14 18,4 14,1   Calm   1022,2 76 -
08:18 19,2 14,0   Calm   1022,2 72 -
08:24 19,8 13,7   Calm   1022,2 68 -
08:28 19,8 13,5   Calm   1022,2 67 -
08:34 19,9 13,6   Calm   1022,2 67 -
08:38 19,9 13,8   Calm   1022,2 68 -
08:44 20,4 14,3   Calm   1022,2 68 -
08:48 20,6 14,0   Calm   1022,2 66 -
08:54 19,7 13,2   Calm 4,8 1022,2 66 -
08:58 19,4 13,3 3,2 West 3,2 1022,2 68 -
09:04 19,2 13,1 1,4 West 3,2 1022,2 68 -
09:08 19,2 13,1   Calm 3,2 1022,6 68 -
09:14 19,4 13,3   Calm 3,2 1022,2 68 -
09:18 19,7 13,6   Calm 1,6 1022,2 68 -
09:24 20,5 13,7 3,2 WNW 3,2 1022,2 65 -
09:29 20,4 13,1   Calm 1,6 1022,2 63 -
09:33 20,6 13,6 3,2 NE 4,8 1022,2 64 -
09:39 20,7 13,4   Calm 3,2 1022,2 63 -
09:43 20,8 13,5   Calm 1,6 1022,2 63 -

Download your copy of this data-set  here

Our weather-data as stored at Weather Underground. Script developed by Jim McMurry. Adapted for the template by Leuven-Template.eu

You find our weather info also at:

Weather Underground

Equipment we use:

Weather-station
Davis Vue

Weather-program
Meteobridge

Weather-server
Raspberry PI 2 B+

Provider
1 and 1

Davis Vue

Meteobridge

Raspberry PI 2 B+

1 and 1